Tracking 35275 objects as of 9-Sep-2026
HD Live streaming from Space Station
objects crossing your sky now

STARLINK-33964

Track STARLINK-33964 now!
10-day predictions
STARLINK-33964 is classified as:


NORAD ID: 64118
Int'l Code: 2025-110Y
Launch date: May 23, 2025
Source: United States (US)
Launch site: AIR FORCE WESTERN TEST RANGE (AFWTR)
Your satellite tracking list
Your tracking list is empty




NASA's NSSDC Master Catalog

Two Line Element Set (TLE):
1 64118U 25110Y   26251.39679373  .00020260  00000-0  66232-3 0  9994
2 64118  53.1583 256.8358 0001482  85.8064 274.3107 15.31725475 73879
Source of the keplerian elements: AFSPC